TimeCST,TemperatureF,Dew PointF,Humidity,Sea Level PressureIn,VisibilityMPH,Wind Direction,Wind SpeedMPH,Gust SpeedMPH,PrecipitationIn,Events,Conditions,WindDirDegrees,DateUTC
12:15 AM,64.4,42.8,45,30.17,10.0,NNE,24.2,31.1,N/A,,Overcast,30,2012-11-23 06:15:00
12:35 AM,62.6,42.8,48,30.18,10.0,NNE,23.0,32.2,N/A,,Overcast,30,2012-11-23 06:35:00
12:55 AM,62.6,41.0,45,30.19,10.0,NNE,23.0,29.9,N/A,,Mostly Cloudy,30,2012-11-23 06:55:00
1:15 AM,62.6,41.0,45,30.19,10.0,NNE,24.2,33.4,N/A,,Overcast,30,2012-11-23 07:15:00
1:35 AM,60.8,39.2,45,30.20,10.0,NNE,23.0,29.9,N/A,,Overcast,30,2012-11-23 07:35:00
1:55 AM,60.8,37.4,42,30.21,10.0,NE,24.2,29.9,N/A,,Mostly Cloudy,40,2012-11-23 07:55:00
2:15 AM,59.0,37.4,45,30.22,10.0,NNE,25.3,41.4,N/A,,Scattered Clouds,30,2012-11-23 08:15:00
2:35 AM,59.0,35.6,42,30.24,10.0,NNE,19.6,32.2,N/A,,Mostly Cloudy,30,2012-11-23 08:35:00
2:55 AM,59.0,33.8,39,30.25,10.0,NNE,21.9,27.6,N/A,,Overcast,30,2012-11-23 08:55:00
3:15 AM,57.2,33.8,41,30.26,10.0,NNE,26.5,39.1,N/A,,Mostly Cloudy,30,2012-11-23 09:15:00
3:35 AM,55.4,32.0,41,30.27,10.0,NNE,23.0,33.4,N/A,,Scattered Clouds,30,2012-11-23 09:35:00
3:55 AM,55.4,32.0,41,30.28,10.0,NNE,23.0,33.4,N/A,,Clear,30,2012-11-23 09:55:00
4:15 AM,55.4,30.2,38,30.29,10.0,NNE,23.0,31.1,N/A,,Clear,30,2012-11-23 10:15:00
4:35 AM,53.6,30.2,41,30.31,10.0,NE,20.7,32.2,N/A,,Clear,40,2012-11-23 10:35:00
4:55 AM,53.6,30.2,41,30.31,10.0,NE,19.6,29.9,N/A,,Clear,40,2012-11-23 10:55:00
5:15 AM,53.6,30.2,41,30.33,10.0,NE,21.9,29.9,N/A,,Scattered Clouds,40,2012-11-23 11:15:00
5:35 AM,53.6,30.2,41,30.34,10.0,NE,18.4,23.0,N/A,,Mostly Cloudy,40,2012-11-23 11:35:00
5:55 AM,53.6,32.0,44,30.35,10.0,NE,13.8,24.2,N/A,,Overcast,40,2012-11-23 11:55:00
6:15 AM,51.8,32.0,47,30.37,10.0,NNE,13.8,20.7,N/A,,Mostly Cloudy,30,2012-11-23 12:15:00
6:35 AM,51.8,32.0,47,30.38,10.0,NNE,15.0,19.6,N/A,,Clear,30,2012-11-23 12:35:00
7:15 AM,50.0,32.0,50,30.40,10.0,NNE,15.0,-,N/A,,Clear,30,2012-11-23 13:15:00
7:35 AM,50.0,32.0,50,30.42,10.0,NNE,12.7,18.4,N/A,,Clear,20,2012-11-23 13:35:00
7:55 AM,50.0,33.8,54,30.43,10.0,NNE,12.7,-,N/A,,Clear,20,2012-11-23 13:55:00
8:15 AM,48.2,35.6,62,30.44,10.0,NNE,11.5,20.7,N/A,,Clear,20,2012-11-23 14:15:00
8:35 AM,50.0,35.6,58,30.45,10.0,NNE,13.8,-,N/A,,Clear,20,2012-11-23 14:35:00
8:55 AM,50.0,35.6,58,30.46,10.0,NE,15.0,24.2,N/A,,Clear,40,2012-11-23 14:55:00
9:15 AM,51.8,33.8,50,30.47,10.0,NNE,16.1,25.3,N/A,,Clear,20,2012-11-23 15:15:00
9:35 AM,51.8,32.0,47,30.48,10.0,NE,15.0,25.3,N/A,,Clear,40,2012-11-23 15:35:00
9:55 AM,53.6,30.2,41,30.49,10.0,NNE,20.7,26.5,N/A,,Clear,30,2012-11-23 15:55:00
10:15 AM,53.6,28.4,38,30.50,10.0,NE,17.3,27.6,N/A,,Clear,40,2012-11-23 16:15:00
10:35 AM,55.4,28.4,36,30.50,10.0,NE,19.6,24.2,N/A,,Clear,40,2012-11-23 16:35:00
10:55 AM,55.4,28.4,36,30.51,10.0,NE,16.1,24.2,N/A,,Clear,50,2012-11-23 16:55:00
11:15 AM,57.2,28.4,33,30.50,10.0,NNE,17.3,24.2,N/A,,Clear,30,2012-11-23 17:15:00
11:35 AM,59.0,26.6,29,30.50,10.0,North,20.7,26.5,N/A,,Clear,10,2012-11-23 17:35:00
11:55 AM,59.0,24.8,27,30.50,10.0,NNE,18.4,29.9,N/A,,Clear,30,2012-11-23 17:55:00
12:15 PM,59.0,26.6,29,30.49,10.0,NNE,16.1,25.3,N/A,,Clear,20,2012-11-23 18:15:00
12:35 PM,59.0,28.4,31,30.49,10.0,NNE,15.0,19.6,N/A,,Clear,30,2012-11-23 18:35:00
12:55 PM,59.0,26.6,29,30.48,10.0,North,16.1,26.5,N/A,,Clear,10,2012-11-23 18:55:00
1:15 PM,59.0,26.6,29,30.48,10.0,North,16.1,23.0,N/A,,Clear,10,2012-11-23 19:15:00
1:35 PM,59.0,28.4,31,30.48,10.0,NNE,13.8,24.2,N/A,,Clear,20,2012-11-23 19:35:00
1:55 PM,57.2,26.6,31,30.47,10.0,NNE,17.3,27.6,N/A,,Clear,30,2012-11-23 19:55:00
2:15 PM,59.0,26.6,29,30.47,10.0,North,15.0,-,N/A,,Clear,360,2012-11-23 20:15:00
2:35 PM,57.2,26.6,31,30.47,10.0,North,16.1,25.3,N/A,,Clear,10,2012-11-23 20:35:00
2:55 PM,57.2,28.4,33,30.46,10.0,North,11.5,20.7,N/A,,Clear,360,2012-11-23 20:55:00
3:15 PM,55.4,28.4,36,30.46,10.0,North,16.1,20.7,N/A,,Clear,10,2012-11-23 21:15:00
3:35 PM,55.4,28.4,36,30.46,10.0,NNE,16.1,20.7,N/A,,Clear,20,2012-11-23 21:35:00
3:55 PM,55.4,28.4,36,30.46,10.0,North,12.7,20.7,N/A,,Clear,10,2012-11-23 21:55:00
4:15 PM,55.4,26.6,33,30.46,10.0,NNE,12.7,18.4,N/A,,Clear,20,2012-11-23 22:15:00
4:35 PM,53.6,26.6,35,30.46,10.0,North,10.4,-,N/A,,Clear,10,2012-11-23 22:35:00
4:55 PM,53.6,26.6,35,30.46,10.0,North,11.5,-,N/A,,Clear,10,2012-11-23 22:55:00
5:15 PM,51.8,26.6,38,30.46,10.0,North,12.7,16.1,N/A,,Clear,360,2012-11-23 23:15:00
5:35 PM,50.0,26.6,40,30.46,10.0,North,9.2,-,N/A,,Clear,360,2012-11-23 23:35:00
5:55 PM,50.0,26.6,40,30.46,10.0,North,9.2,-,N/A,,Clear,10,2012-11-23 23:55:00
6:35 PM,46.4,26.6,46,30.47,10.0,North,8.1,-,N/A,,Clear,10,2012-11-24 00:35:00
6:55 PM,46.4,26.6,46,30.47,10.0,NNE,6.9,-,N/A,,Clear,20,2012-11-24 00:55:00
7:15 PM,46.4,26.6,46,30.47,10.0,NNE,8.1,-,N/A,,Clear,20,2012-11-24 01:15:00
7:35 PM,44.6,26.6,49,30.47,10.0,NNE,8.1,-,N/A,,Clear,30,2012-11-24 01:35:00
7:55 PM,44.6,26.6,49,30.47,10.0,NNE,9.2,-,N/A,,Clear,20,2012-11-24 01:55:00
8:15 PM,44.6,26.6,49,30.47,10.0,NNE,9.2,-,N/A,,Clear,30,2012-11-24 02:15:00
8:35 PM,42.8,26.6,53,30.46,10.0,NNE,8.1,-,N/A,,Clear,30,2012-11-24 02:35:00
8:55 PM,42.8,26.6,53,30.46,10.0,NNE,9.2,-,N/A,,Clear,30,2012-11-24 02:55:00
9:15 PM,42.8,26.6,53,30.46,10.0,NNE,8.1,-,N/A,,Clear,30,2012-11-24 03:15:00
9:35 PM,42.8,26.6,53,30.46,10.0,NNE,5.8,-,N/A,,Clear,30,2012-11-24 03:35:00
9:55 PM,41.0,26.6,57,30.47,10.0,NNE,5.8,-,N/A,,Clear,30,2012-11-24 03:55:00
10:15 PM,41.0,26.6,57,30.47,10.0,NE,5.8,-,N/A,,Clear,40,2012-11-24 04:15:00
10:55 PM,39.2,26.6,61,30.46,10.0,NE,8.1,-,N/A,,Clear,40,2012-11-24 04:55:00
11:15 PM,37.4,26.6,65,30.46,10.0,NE,5.8,-,N/A,,Clear,40,2012-11-24 05:15:00
11:35 PM,37.4,24.8,60,30.45,10.0,Calm,Calm,-,N/A,,Clear,0,2012-11-24 05:35:00
11:55 PM,37.4,24.8,60,30.45,10.0,NE,4.6,-,N/A,,Clear,40,2012-11-24 05:55:00